Weather History for Asheville, NC

Change the Weather History Date:

Tuesday, November 20, 2012

  Actual Average Record
Temperature  
Mean Temperature 49 °F 46 °F  
Max Temperature 62 °F 57 °F 76 °F (1942)
Min Temperature 36 °F 35 °F 9 °F (1914)
Degree Days  
Heating Degree Days 16 19  
Month to date heating degree days 377 324  
Since 1 July heating degree days 689 659  
Cooling Degree Days 0 0  
Month to date cooling degree days 0 0  
Year to date cooling degree days 1022 862  
Moisture  
Dew Point 36 °F    
Average Humidity 65    
Maximum Humidity 100    
Minimum Humidity 29    
Precipitation  
Precipitation 0.00 in 0.14 in 0.77 in (1988)
Month to date precipitation 0.85 2.29  
Year to date precipitation 40.28 40.62  
Snow  
Snow 0.00 in 0.00 in 1.30 in (1914)
Month to date snowfall 0.0 0.0  
Since 1 July snowfall 0.0 0.0  
Since 1 September snowfall 0.0 0.0  
Snow Depth 0.00 in    
Sea Level Pressure  
Sea Level Pressure 30.16 in    
Wind  
Wind Speed 4 mph (NNW)    
Max Wind Speed 14 mph    
Max Gust Speed 20 mph    
Visibility 5 miles    
Events Fog    
T = Trace of Precipitation, MM = Missing Value Source: NWS Daily Summary

Daily Weather History Graph

Daily Weather History Graph

Search for Another Location

Airport:

Trip Planner

Search our weather history database for the weather conditions in past years. The results will help you decide how hot, cold, wet, or windy it might be!

Date:

Astronomy

Nov. 20, 2012 Rise Set
Actual Time 7:10 AM EST 5:20 PM EST
Civil Twilight 6:43 AM EST 5:48 PM EST
Nautical Twilight 6:12 AM EST 6:19 PM EST
Astronomical Twilight 5:42 AM EST 6:49 PM EST
Moon 12:51 PM EST No Moon Set
Length of Visible Light 11h 04m
Length of Day
10h 09m
Waxing Crescent, 51% of the Moon is Illuminated
Nov 20
Waxing Crescent
Nov 28
Full
Dec 6
Last Quarter
Dec 13
New
Dec 20
First Quarter

Hourly Weather History & Observations

Time (EST) Temp. Windchill Dew Point Humidity Pressure Visibility Wind Dir Wind Speed Gust Speed Precip Events Conditions
12:05 AM 39.2 °F - 39.2 °F 100% 30.21 in 1.0 mi Calm Calm - N/A   Mist
12:07 AM 39.2 °F - 39.2 °F 100% 30.21 in 0.8 mi Calm Calm - N/A   Mist
12:21 AM 39.2 °F - 37.4 °F 93% 30.22 in 1.5 mi Calm Calm - N/A   Mostly Cloudy
12:24 AM 39.2 °F - 37.4 °F 93% 30.21 in 4.0 mi Calm Calm - N/A   Mostly Cloudy
12:35 AM 37.4 °F - 37.4 °F 100% 30.22 in 2.5 mi Calm Calm - N/A   Mostly Cloudy
12:40 AM 37.4 °F - 37.4 °F 100% 30.21 in 1.2 mi Calm Calm - N/A   Mostly Cloudy
12:44 AM 37.4 °F - 35.6 °F 93% 30.22 in 0.5 mi Calm Calm - N/A Fog Fog
12:54 AM 37.0 °F - 37.0 °F 100% 30.21 in 0.5 mi Calm Calm - N/A Fog Fog
1:29 AM 37.4 °F - 37.4 °F 100% 30.20 in 1.5 mi Calm Calm - N/A   Overcast
1:31 AM 37.4 °F - 37.4 °F 100% 30.19 in 4.0 mi Calm Calm - N/A   Overcast
1:44 AM 37.4 °F - 37.4 °F 100% 30.19 in 1.8 mi Calm Calm - N/A   Overcast
1:49 AM 37.4 °F - 37.4 °F 100% 30.19 in 0.8 mi Calm Calm - N/A   Overcast
1:52 AM 37.4 °F 34.9 °F 37.4 °F 100% 30.19 in 1.0 mi NNW 3.5 mph - N/A   Overcast
1:54 AM 39.0 °F 36.8 °F 37.9 °F 96% 30.18 in 1.2 mi NNW 3.5 mph - N/A   Overcast
2:02 AM 39.2 °F 35.9 °F 39.2 °F 100% 30.19 in 0.8 mi NNW 4.6 mph - N/A   Overcast
2:21 AM 39.2 °F - 39.2 °F 100% 30.18 in 0.2 mi Calm Calm - N/A Fog Fog
2:46 AM 39.2 °F 37.0 °F 39.2 °F 100% 30.17 in 0.2 mi NNW 3.5 mph - N/A Fog Fog
2:54 AM 39.9 °F 37.8 °F 39.9 °F 100% 30.16 in 0.2 mi WNW 3.5 mph - N/A Fog Fog
3:38 AM 39.2 °F - 39.2 °F 100% 30.17 in 0.5 mi Calm Calm - N/A Fog Fog
3:54 AM 39.0 °F - 37.9 °F 96% 30.15 in 1.0 mi Calm Calm - N/A   Overcast
3:58 AM 39.2 °F 35.0 °F 39.2 °F 100% 30.17 in 2.0 mi NNW 5.8 mph - N/A   Overcast
4:06 AM 37.4 °F 33.8 °F 37.4 °F 100% 30.17 in 7.0 mi NW 4.6 mph - N/A   Overcast
4:18 AM 37.4 °F - 37.4 °F 100% 30.17 in 8.0 mi Calm Calm - N/A   Scattered Clouds
4:23 AM 37.4 °F - 37.4 °F 100% 30.17 in 1.5 mi Calm Calm - N/A   Scattered Clouds
4:26 AM 37.4 °F - 37.4 °F 100% 30.16 in 1.0 mi Calm Calm - N/A   Mist
4:38 AM 37.4 °F - 35.6 °F 93% 30.17 in 0.5 mi Calm Calm - N/A Fog Fog
4:46 AM 37.4 °F 34.9 °F 35.6 °F 93% 30.17 in 0.2 mi West 3.5 mph - N/A Fog Fog
4:54 AM 37.0 °F 34.5 °F 37.0 °F 100% 30.16 in 0.5 mi WSW 3.5 mph - N/A Fog Fog
5:08 AM 37.4 °F - 37.4 °F 100% 30.16 in 1.2 mi Calm Calm - N/A   Scattered Clouds
5:12 AM 37.4 °F - 37.4 °F 100% 30.16 in 2.0 mi Calm Calm - N/A   Partly Cloudy
5:21 AM 37.4 °F - 35.6 °F 93% 30.16 in 6.0 mi Calm Calm - N/A   Partly Cloudy
5:54 AM 37.9 °F - 37.0 °F 97% 30.16 in 10.0 mi Calm Calm - N/A   Clear
6:54 AM 37.9 °F 35.5 °F 36.0 °F 93% 30.17 in 10.0 mi NW 3.5 mph - N/A   Clear
7:54 AM 39.0 °F - 37.9 °F 96% 30.18 in 7.0 mi Calm Calm - N/A   Mostly Cloudy
8:54 AM 41.0 °F - 37.9 °F 89% 30.19 in 10.0 mi Calm Calm - N/A   Mostly Cloudy
9:54 AM 44.1 °F - 41.0 °F 89% 30.19 in 10.0 mi Calm Calm - N/A   Mostly Cloudy
10:54 AM 51.1 °F - 42.1 °F 71% 30.18 in 10.0 mi Calm Calm - N/A   Clear
11:54 AM 57.9 °F - 37.9 °F 47% 30.13 in 10.0 mi North 6.9 mph - N/A   Partly Cloudy
12:54 PM 60.1 °F - 32.0 °F 35% 30.09 in 10.0 mi North 11.5 mph 19.6 mph N/A   Clear
1:54 PM 61.0 °F - 32.0 °F 34% 30.07 in 10.0 mi Variable 6.9 mph - N/A   Scattered Clouds
2:54 PM 62.1 °F - 30.9 °F 31% 30.05 in 10.0 mi North 10.4 mph - N/A   Clear
3:54 PM 61.0 °F - 28.9 °F 30% 30.06 in 10.0 mi North 8.1 mph - N/A   Clear
4:54 PM 57.0 °F - 32.0 °F 39% 30.07 in 10.0 mi NNW 5.8 mph - N/A   Clear
5:54 PM 53.1 °F - 33.1 °F 47% 30.08 in 10.0 mi NW 8.1 mph - N/A   Clear
6:54 PM 50.0 °F - 33.1 °F 52% 30.10 in 10.0 mi NNW 4.6 mph - N/A   Clear
7:54 PM 50.0 °F - 33.1 °F 52% 30.11 in 10.0 mi North 5.8 mph - N/A   Clear
8:54 PM 46.9 °F - 33.1 °F 59% 30.12 in 10.0 mi Calm Calm - N/A   Clear
9:54 PM 42.1 °F 37.7 °F 34.0 °F 73% 30.13 in 10.0 mi NNW 6.9 mph - N/A   Clear
10:54 PM 39.9 °F - 33.1 °F 77% 30.13 in 10.0 mi Calm Calm - N/A   Clear
11:54 PM 36.0 °F - 33.1 °F 89% 30.12 in 10.0 mi Calm Calm - N/A   Clear